Theta_e
334 335 335 332 334 334 333 332 332 333 331 331 332 332 332 332 332 331 330 329 327 327 326 326 328 329 330 331 330 330 330 329 330 329 330 330 328 324 317 311 309 307 307 309 314 313 310 309 307 307 307 306 306 305 305 305 305 305 305 305 304 305 305 305 308 311 312 313 314 316 317 318 318 318 318 318 317 318 318 318 317 316 315 313 312
334 335 334 333 334 335 334 333 333 334 333 332 331 332 332 332 332 332 331 329 328 327 327 326 327 328 329 330 331 330 330 329 330 329 329 330 330 328 324 319 314 309 308 308 311 314 312 313 310 307 308 307 306 306 305 305 305 305 305 304 304 305 305 305 307 311 312 314 315 316 317 318 318 318 318 317 318 318 318 317 316 315 314 312 310
333 334 334 333 333 333 334 334 333 334 335 333 332 331 331 331 331 331 330 329 328 328 328 327 326 327 328 330 331 331 331 331 329 329 329 330 329 330 329 325 319 313 310 308 309 312 312 314 312 307 307 307 306 306 305 305 305 305 305 304 304 304 305 305 307 311 313 315 316 317 318 318 319 318 317 317 318 318 317 317 315 314 312 310 308
332 333 333 332 331 333 333 334 334 334 335 334 332 332 331 331 331 330 330 329 328 327 328 327 327 327 327 329 331 332 332 331 331 330 329 329 329 329 329 327 322 315 312 309 308 310 309 313 315 310 307 307 307 306 306 305 305 305 304 305 304 304 304 304 307 311 313 316 317 318 319 319 319 318 317 317 318 317 316 316 315 313 311 309 307
333 333 333 331 331 332 333 334 335 335 336 334 333 333 332 331 331 331 330 329 328 327 327 327 327 327 327 328 330 332 332 330 331 331 330 329 328 328 329 328 325 319 314 311 309 310 308 312 317 314 308 307 307 306 306 305 305 305 304 305 304 304 304 304 307 311 314 317 318 319 319 319 319 318 317 317 318 317 316 315 314 312 310 308 306
333 331 331 331 331 333 333 333 335 335 335 335 334 334 333 332 331 331 331 329 327 327 327 327 326 326 327 327 328 331 331 331 331 331 330 329 328 328 328 328 328 324 319 314 311 309 308 309 313 314 309 307 307 306 306 305 305 305 304 304 304 304 304 304 307 312 316 317 318 319 319 319 318 318 318 318 317 317 316 315 313 311 309 307 305
333 332 331 331 331 333 333 332 335 335 334 334 335 336 334 332 332 331 330 329 328 327 327 327 326 326 326 327 327 329 331 331 331 330 330 329 328 328 327 328 328 328 326 322 317 313 310 308 308 311 310 307 307 306 306 305 305 305 305 304 304 304 304 304 307 313 316 318 318 319 319 319 318 317 317 318 317 316 315 314 313 311 308 306 305
329 332 333 333 331 331 331 331 332 332 333 333 333 334 334 333 331 331 331 330 329 327 327 326 326 326 326 327 327 327 329 331 331 330 330 329 328 327 327 327 327 328 328 327 325 321 315 310 308 311 313 311 308 307 306 305 305 305 304 304 304 304 304 304 309 314 317 318 319 319 318 319 318 317 318 317 316 316 314 314 312 310 307 305 303
323 326 330 333 332 331 331 331 330 330 331 333 332 331 332 333 332 330 330 331 330 329 327 327 326 326 326 326 326 326 328 329 329 329 329 328 328 327 327 327 327 327 327 327 328 326 322 315 311 310 312 313 311 311 310 307 306 305 304 304 304 304 304 308 312 315 317 318 319 319 318 318 317 317 317 317 316 314 314 312 311 308 306 304 303
318 318 322 328 332 333 332 332 331 331 331 331 332 331 330 331 332 332 332 331 331 330 328 327 326 325 326 326 326 326 327 327 328 328 328 328 328 327 326 326 326 326 326 327 327 327 326 322 316 312 311 312 312 311 311 309 306 305 304 303 304 303 305 316 319 316 318 318 318 319 319 318 317 318 317 316 315 314 313 311 309 306 304 303 302
315 316 317 321 328 333 334 333 332 332 331 331 332 331 330 329 329 330 333 333 332 332 330 329 327 325 325 326 326 327 326 327 327 328 328 328 327 326 326 326 326 326 326 326 326 326 327 325 321 317 312 311 311 311 310 310 308 305 304 303 305 303 308 321 322 317 319 319 318 319 318 318 318 318 318 316 315 313 311 310 307 305 303 302 301
313 315 317 319 323 328 332 333 332 333 333 332 331 329 329 329 329 329 329 332 334 334 332 330 327 326 325 325 326 327 327 327 327 327 327 327 327 326 326 326 326 326 326 326 326 326 327 327 325 323 318 311 310 311 309 310 309 307 304 304 305 303 310 323 323 318 319 319 319 320 318 318 318 318 317 315 314 312 310 308 306 303 302 301 300
311 313 315 317 319 322 326 330 331 332 333 333 332 330 329 330 331 329 326 329 332 334 333 330 328 327 325 325 327 327 327 327 326 327 327 327 327 326 326 325 326 327 326 327 327 327 326 327 327 326 324 320 315 314 313 311 310 308 305 304 305 303 311 324 323 318 319 319 320 320 317 318 319 318 316 314 313 311 309 307 304 303 301 300 300
312 313 313 316 318 318 320 322 324 326 328 332 332 332 332 332 332 330 326 328 331 333 333 331 329 328 327 326 327 327 327 327 327 327 327 327 327 326 326 325 326 326 326 326 327 327 326 327 327 326 326 326 322 319 317 314 311 309 307 304 305 304 311 323 324 319 320 320 320 319 318 319 319 317 316 315 313 310 308 306 303 302 301 300 299
315 317 316 317 319 320 320 320 321 321 322 326 329 332 333 333 333 332 330 330 331 332 332 330 329 329 327 327 328 328 328 328 328 328 327 327 327 326 326 326 326 326 327 327 326 327 326 326 327 326 326 326 326 323 320 318 312 309 307 304 305 305 311 321 324 321 320 320 320 319 318 320 320 318 316 315 313 310 308 305 303 301 300 300 299
316 318 319 319 320 321 321 321 322 322 321 320 322 326 330 333 333 332 332 332 332 332 331 330 330 329 328 327 327 327 328 328 328 328 327 327 327 326 326 326 326 326 327 327 327 327 326 326 327 327 326 326 327 326 325 324 320 313 308 304 304 305 310 318 322 322 321 320 321 319 318 321 321 319 318 316 313 310 308 305 303 301 300 299 299
316 317 318 319 320 321 321 322 323 324 324 323 321 319 321 328 332 332 332 332 332 332 332 331 330 329 328 328 327 327 328 328 329 329 328 327 327 327 327 327 327 326 326 326 326 326 326 326 326 326 327 326 326 327 327 327 326 320 309 304 305 305 310 315 317 322 322 320 320 319 318 321 322 321 319 317 314 311 308 305 303 301 300 299 299
315 316 318 319 319 320 321 321 322 323 324 325 325 322 318 321 326 331 332 334 333 332 331 330 329 329 328 328 327 328 328 327 329 330 330 329 328 327 327 328 327 327 326 326 326 326 326 326 326 325 326 326 326 326 326 327 326 321 309 304 305 304 309 312 314 321 322 320 320 319 318 321 323 322 321 319 316 312 309 306 303 302 300 299 299
316 316 317 318 318 319 319 320 321 322 323 324 325 326 324 320 319 324 329 332 333 333 332 329 327 329 329 327 327 327 327 328 328 329 329 330 329 328 328 328 328 327 326 326 326 326 325 325 325 325 325 326 326 325 325 325 324 318 307 304 306 304 308 310 311 319 323 321 320 319 318 321 323 323 323 320 316 313 310 307 304 302 300 299 299
316 316 316 317 318 318 318 319 319 320 321 322 324 325 326 324 319 320 323 326 329 332 332 328 327 328 328 327 327 326 326 327 328 329 328 329 330 329 329 328 327 327 326 326 325 325 325 324 324 324 325 325 326 325 325 325 321 314 307 305 305 305 309 309 308 317 324 322 320 320 318 321 323 323 323 321 317 314 311 307 304 301 299 299 298
313 315 315 316 317 317 317 318 318 319 319 320 321 323 324 325 323 323 323 324 326 328 328 327 327 329 328 327 327 326 326 326 327 328 329 328 329 330 329 328 327 327 326 325 325 325 325 325 324 324 325 325 325 325 324 323 319 313 308 305 305 306 310 310 308 316 325 324 320 320 319 320 322 323 323 321 318 314 311 307 303 300 299 298 298
308 310 311 313 314 315 316 317 317 318 318 319 320 321 322 322 322 324 325 324 324 326 327 328 329 330 328 327 327 326 326 325 326 327 328 328 328 328 329 329 328 327 326 326 326 326 325 325 325 324 324 324 324 324 322 320 319 317 312 305 306 307 309 312 311 316 325 325 321 320 319 320 322 322 323 321 318 315 312 307 303 301 299 298 298
305 306 307 307 308 310 313 315 316 317 317 318 319 319 320 320 321 322 324 324 324 325 328 331 331 330 329 327 327 327 326 325 325 326 327 328 328 328 328 327 328 328 327 327 326 326 325 325 325 324 324 324 323 323 321 319 321 322 317 309 306 306 307 311 312 315 322 325 322 320 319 319 321 322 322 321 318 315 312 308 304 301 299 298 298
305 306 306 305 304 305 307 310 313 315 316 317 318 319 320 320 321 321 322 324 325 325 327 329 329 330 329 328 327 327 326 325 325 325 326 327 328 329 328 327 327 328 328 328 327 326 326 325 325 324 324 324 324 323 323 322 324 326 324 317 309 306 307 310 312 316 323 327 323 320 320 319 321 322 322 320 318 316 313 308 304 301 299 298 297
305 305 305 305 304 304 304 305 308 311 314 314 315 317 318 320 321 321 321 322 324 325 326 326 327 328 328 329 328 327 326 326 325 324 324 325 327 328 329 328 327 327 326 327 327 326 326 325 325 324 324 324 325 325 324 325 326 326 327 323 315 309 308 310 314 318 324 328 324 321 320 320 321 322 321 320 318 316 314 310 305 302 299 298 297
305 305 305 305 305 304 304 304 304 306 309 311 312 313 316 317 319 320 320 320 321 324 325 325 325 326 327 327 327 327 326 326 325 324 323 325 326 327 328 328 328 327 325 326 327 326 326 325 325 324 324 324 325 325 326 326 326 325 326 324 317 310 308 313 318 320 324 326 324 321 320 320 321 322 322 321 318 316 317 313 307 303 300 298 297
305 305 305 305 305 304 304 304 303 303 305 307 310 311 312 313 316 318 319 319 320 321 324 324 324 325 326 326 327 327 326 325 325 325 325 325 325 326 327 327 328 328 327 326 327 327 325 325 325 324 324 325 326 326 327 326 325 324 324 323 317 311 314 318 320 323 325 327 325 322 320 321 321 321 322 322 319 317 318 316 311 305 302 299 297
305 304 305 305 304 304 304 303 303 303 303 304 307 309 310 311 314 316 318 318 319 319 321 323 324 324 325 325 326 327 327 325 324 323 324 325 325 325 325 326 327 328 328 325 325 326 325 324 325 324 325 326 327 327 326 325 324 324 324 322 317 315 320 322 321 325 328 327 324 322 320 321 322 322 322 322 320 318 319 319 315 309 303 300 298
304 304 304 304 303 304 303 302 303 304 304 305 304 307 310 312 313 314 316 318 319 319 319 321 322 323 324 324 325 326 328 327 325 324 325 325 324 323 325 325 326 327 327 326 324 325 325 324 324 325 326 327 327 327 326 324 324 324 323 322 320 321 324 323 322 326 329 327 323 321 321 321 322 322 322 321 320 319 319 320 318 311 304 301 298
304 304 305 304 304 305 304 304 305 306 306 307 307 306 308 311 312 313 315 317 319 320 320 320 320 321 322 324 325 326 326 327 326 326 325 323 322 323 326 326 325 327 327 327 326 324 325 325 325 325 325 325 326 326 326 325 324 323 324 325 324 324 324 322 324 328 329 327 323 320 321 322 322 323 322 321 320 320 319 320 319 313 305 301 298
305 306 308 306 305 306 306 305 306 307 307 307 307 307 308 309 311 312 313 316 318 319 320 321 321 320 320 321 323 324 324 325 326 326 326 323 320 321 324 325 326 327 326 327 327 326 325 325 325 325 324 324 324 324 324 325 323 323 325 326 324 323 323 323 326 329 327 325 322 321 322 322 322 323 322 322 321 321 320 320 319 313 305 301 298
306 307 307 306 306 306 306 306 306 306 306 306 306 307 307 308 310 311 312 314 316 318 319 320 321 321 320 320 321 322 323 325 326 326 326 325 322 320 320 320 323 327 327 327 327 327 325 324 325 325 324 325 325 324 323 323 323 324 326 326 324 323 324 325 327 327 326 325 323 322 322 322 322 322 322 322 321 321 321 320 318 313 306 301 297
307 306 306 305 306 306 306 305 306 305 305 306 306 306 307 307 309 310 312 313 314 317 318 320 320 321 321 321 321 322 323 325 326 325 325 325 323 321 319 317 319 325 327 327 327 326 326 325 325 325 325 324 324 323 322 321 321 324 326 326 325 324 325 325 326 326 325 324 323 322 322 322 321 321 321 322 322 322 320 319 317 313 306 301 297
306 306 305 305 305 305 305 305 305 305 305 305 305 306 306 306 307 309 310 312 313 315 317 319 319 320 321 321 321 322 323 324 325 324 325 326 324 321 319 315 315 320 325 327 327 326 326 326 327 326 325 324 323 321 319 318 320 323 325 326 326 326 325 325 325 325 324 323 322 322 322 321 319 319 321 321 322 322 320 319 317 312 306 300 297
306 306 305 305 305 304 304 304 304 305 305 305 305 305 305 306 306 307 309 310 312 313 315 317 319 319 320 321 321 321 322 323 324 324 324 325 325 323 321 317 314 314 318 324 327 327 326 326 327 326 325 324 323 321 319 319 322 324 326 327 327 326 326 325 324 324 324 323 322 322 321 320 319 318 320 321 322 321 320 318 316 312 306 300 296
306 305 305 305 305 304 304 304 304 304 304 305 304 304 305 305 306 306 307 309 311 312 313 315 317 318 319 320 320 321 321 322 323 324 324 324 325 325 325 324 321 317 315 318 324 326 326 325 327 326 325 324 323 321 320 321 323 325 325 326 327 327 326 325 324 324 324 323 322 322 320 319 318 318 319 321 321 320 319 318 316 313 306 299 296
305 305 305 304 304 304 304 304 304 304 304 304 304 304 304 305 305 306 306 307 309 311 313 314 315 316 318 319 320 320 321 321 322 323 324 324 324 325 326 325 325 324 322 320 322 325 326 326 326 325 324 323 321 320 320 321 322 324 324 325 326 326 326 325 325 325 324 323 322 321 320 318 317 318 319 320 320 319 318 317 316 312 305 299 296
305 305 304 304 305 304 304 304 304 304 304 304 304 304 304 304 305 305 306 306 308 309 312 314 315 315 316 317 319 320 321 321 321 322 323 323 324 324 324 325 325 327 327 325 325 327 326 326 327 324 323 322 319 318 320 321 322 323 323 324 323 323 325 325 325 325 323 321 321 320 319 318 318 317 318 320 319 318 318 317 315 311 304 299 296
304 304 304 304 305 304 304 304 304 304 304 304 303 303 303 304 304 304 305 306 307 308 310 312 314 315 316 316 317 318 319 320 321 321 322 323 323 323 324 326 327 327 328 328 328 328 326 327 327 325 323 321 319 319 321 321 321 321 322 322 322 322 324 325 325 325 323 320 319 317 317 316 316 316 317 318 318 318 317 316 314 310 304 298 295
304 304 304 304 304 304 304 304 304 304 303 303 303 303 303 303 303 304 304 305 305 306 308 310 311 314 315 316 316 317 318 319 320 321 322 322 323 323 325 326 326 326 327 328 328 328 327 327 327 325 323 320 318 319 319 318 319 320 321 322 322 323 324 324 323 323 322 321 318 316 316 316 315 316 317 318 318 316 316 315 314 310 303 297 295
303 304 304 304 304 303 303 303 303 303 303 303 303 303 303 303 303 304 304 304 304 305 305 307 309 311 313 314 315 316 317 318 319 320 321 322 322 323 325 326 324 324 326 328 328 328 327 327 327 325 323 319 318 319 318 318 320 321 321 322 322 322 322 323 322 321 321 320 318 317 318 317 316 316 316 317 316 315 315 316 315 310 302 296 294
303 303 303 303 303 303 303 303 303 303 303 303 303 303 303 303 303 303 303 304 304 304 304 305 307 309 311 313 314 315 316 316 317 319 320 321 322 322 324 325 324 323 325 328 329 328 327 327 326 324 321 319 318 319 320 322 322 322 322 322 322 322 322 320 318 318 319 319 318 319 319 318 316 315 315 315 315 314 315 317 315 308 300 295 294
302 303 302 303 302 303 303 303 303 302 302 302 302 302 303 302 302 302 302 302 303 303 304 305 306 307 308 310 312 313 315 315 316 317 318 320 321 321 322 324 324 324 325 326 327 328 328 327 326 323 321 320 319 320 321 323 323 323 323 322 322 323 323 321 319 318 320 321 321 320 319 318 316 314 314 315 315 315 315 317 315 306 298 294 294
301 301 301 301 301 302 302 302 302 302 302 302 301 301 301 301 301 300 300 301 301 302 302 304 305 306 307 309 310 312 314 315 316 317 317 318 319 320 321 322 322 323 324 325 327 328 328 327 326 324 322 321 321 321 323 323 324 324 323 322 322 323 323 323 322 321 321 321 320 319 317 317 316 314 314 313 314 316 315 315 315 306 297 294 294
300 300 300 300 300 300 300 300 301 301 301 301 301 300 300 300 300 299 299 299 299 300 300 302 303 305 307 308 309 310 312 314 316 317 318 318 318 318 319 320 321 321 321 323 326 327 328 327 327 325 323 322 323 323 324 324 325 325 323 322 323 323 323 322 321 322 322 320 319 316 315 316 316 314 314 312 311 313 312 311 310 303 295 293 293
300 300 300 299 299 299 299 299 299 299 299 300 300 300 299 299 299 299 299 299 299 299 299 300 301 303 305 307 309 310 312 314 316 317 318 319 319 319 318 318 320 320 319 320 322 325 327 328 328 326 323 323 324 324 324 325 325 325 324 324 323 323 323 320 319 320 320 319 317 315 313 315 315 312 312 310 306 306 307 307 304 299 294 293 293
299 299 299 299 299 298 298 298 298 298 298 299 299 299 299 298 298 298 298 298 298 298 299 299 300 301 302 305 307 309 312 314 316 317 318 319 320 321 319 318 318 319 319 318 319 322 324 327 328 326 324 323 325 325 325 325 325 324 324 324 324 323 322 319 316 316 316 316 316 314 313 315 314 311 311 308 302 301 305 305 301 296 293 293 292
299 299 299 299 298 298 298 298 298 298 298 298 298 298 298 298 298 298 298 298 298 298 298 298 299 300 301 302 305 308 311 313 315 317 318 319 320 320 321 320 318 318 318 317 317 318 321 324 326 326 325 324 325 325 326 326 325 324 323 322 321 322 321 318 315 314 314 313 313 314 312 312 312 310 309 304 299 299 302 302 299 295 293 292 292
299 299 298 298 298 298 298 298 298 297 297 297 297 297 297 297 297 297 297 297 298 298 298 298 299 299 300 301 302 305 308 311 315 316 317 319 319 319 320 321 321 320 319 318 317 317 318 323 326 326 326 325 325 325 325 325 326 325 323 322 321 321 321 318 316 315 315 313 313 312 310 309 311 309 304 300 298 298 299 299 297 294 293 292 292
298 298 298 298 298 297 297 297 297 297 297 297 296 296 296 296 296 297 297 297 297 297 298 298 299 299 299 300 301 303 306 309 313 316 317 319 319 320 320 321 322 322 321 320 320 318 319 323 326 326 325 325 325 324 325 325 325 326 325 323 323 323 321 319 317 316 314 313 314 313 309 307 308 306 300 297 297 297 297 297 296 294 293 292 292
298 297 297 297 297 297 296 296 296 296 296 296 296 296 296 295 295 296 296 297 297 297 298 298 299 299 299 300 301 303 305 308 311 315 317 318 319 319 320 321 322 323 322 322 322 321 321 323 325 325 324 324 324 324 324 325 325 325 324 323 323 323 321 319 318 316 314 314 314 313 309 306 306 304 299 297 297 296 296 296 295 294 293 292 292
Wind_Speed
8 8 9 9 9 13 18 18 17 16 15 14 13 12 11 11 10 10 8 8 8 8 8 8 8 9 9 9 9 9 9 8 8 7 6 6 12 12 10 10 10 13 15 15 12 12 13 13 14 12 10 10 9 7 6 5 4 3 2 1 0 1 2 3 4 4 4 4 6 7 7 7 8 9 10 12 13 15 15 15 15 15 16 17 18
11 12 10 10 10 11 16 18 17 17 15 15 14 12 12 11 11 9 8 8 8 8 8 9 9 9 10 10 9 9 10 10 8 8 7 6 10 13 12 12 13 12 14 17 15 14 13 13 14 13 12 12 10 8 7 6 6 4 3 2 1 1 2 2 3 2 3 4 6 6 6 6 7 9 10 12 14 15 15 14 15 15 17 17 18
13 15 13 11 11 12 15 16 16 15 14 15 14 13 12 12 10 9 9 8 8 9 8 8 9 10 10 11 10 10 11 11 10 9 8 8 10 13 15 14 15 14 14 17 18 17 15 14 14 14 14 13 12 10 8 8 7 5 4 3 2 1 1 1 1 1 3 5 5 5 5 6 7 9 10 12 13 14 14 14 15 16 17 18 18
13 15 15 13 14 14 15 16 15 14 13 13 13 12 12 11 11 10 10 10 9 9 8 9 9 10 11 11 12 12 12 11 10 11 10 10 10 11 14 16 15 15 14 16 19 19 18 16 15 15 15 15 13 11 10 9 8 7 6 5 4 1 0 1 1 1 3 4 4 4 4 6 7 8 10 12 13 13 13 13 15 16 17 18 19
15 15 16 15 16 16 17 16 14 13 13 14 13 12 12 11 12 12 11 10 10 10 10 10 9 10 11 12 13 13 12 12 11 12 12 11 10 10 12 14 14 15 15 15 17 19 20 19 17 16 16 16 15 13 12 10 9 9 7 7 5 2 2 2 1 0 3 3 3 3 4 5 7 8 10 12 12 11 12 13 15 16 17 18 18
17 17 18 18 17 17 19 16 13 14 15 14 12 11 12 12 12 13 11 10 10 11 11 11 10 10 11 12 13 14 12 12 12 12 12 12 12 11 11 9 11 15 16 16 16 17 20 21 20 18 17 17 16 15 13 12 11 10 9 8 6 3 3 3 2 1 3 3 3 3 3 5 6 8 10 11 11 11 12 13 15 16 17 18 18
17 19 19 20 20 19 20 16 13 18 18 15 13 11 12 12 12 12 10 10 10 10 11 11 11 11 12 12 14 14 13 11 12 14 13 13 13 12 12 11 10 11 12 13 14 15 18 21 22 20 18 18 18 17 15 13 12 12 11 9 7 5 5 4 3 3 4 3 3 2 2 4 6 8 10 10 10 10 12 13 15 16 17 18 18
16 19 20 21 22 21 20 19 18 20 19 18 16 14 12 12 14 12 11 11 11 10 11 11 11 11 12 13 13 15 14 13 13 15 14 13 13 14 14 13 12 11 10 11 15 15 16 19 23 22 20 19 19 18 17 15 14 14 13 10 8 7 6 5 4 4 4 4 3 2 1 3 5 8 9 9 9 10 12 13 15 16 17 18 18
17 19 20 21 23 21 21 23 23 21 21 21 20 20 17 14 15 14 13 13 12 12 12 11 11 11 13 13 14 15 15 15 14 15 16 15 14 14 15 14 13 13 13 12 12 15 17 17 21 23 21 21 21 20 19 17 15 15 14 12 10 9 7 6 5 5 5 4 4 2 0 2 5 7 8 8 9 10 12 13 15 16 17 17 17
18 19 19 20 22 23 24 25 24 23 24 23 21 23 22 18 17 16 15 15 15 15 13 12 12 12 12 14 15 15 16 16 16 16 17 17 15 15 15 15 15 14 15 14 13 13 18 18 20 22 23 23 23 22 21 19 17 15 15 13 12 11 8 6 6 6 5 6 5 3 1 2 5 7 7 8 9 10 12 13 15 16 17 17 17
14 16 18 20 21 23 25 25 24 24 25 24 22 23 23 23 24 21 17 16 15 16 14 11 12 12 12 13 15 15 16 17 17 17 18 17 16 16 16 16 16 16 16 15 15 14 16 18 19 21 25 26 26 25 23 21 18 16 17 16 14 13 8 7 9 7 6 7 6 3 1 3 5 6 7 7 9 10 12 13 15 15 16 16 16
12 13 15 19 21 23 24 25 25 25 26 26 26 27 26 26 29 25 20 18 16 15 15 12 11 13 12 12 14 15 16 18 18 18 18 16 17 18 17 16 16 17 17 16 16 16 16 17 16 16 21 25 26 24 23 22 19 16 19 18 16 14 10 9 11 9 8 8 6 4 2 3 4 6 6 7 9 10 12 13 14 15 15 15 15
13 13 14 15 19 22 23 24 25 26 27 28 29 30 29 29 31 27 22 24 20 16 17 15 14 14 13 13 14 16 16 18 18 18 19 18 18 19 18 18 17 17 18 18 17 17 17 17 16 14 15 19 22 22 23 24 20 18 19 19 17 15 11 11 11 10 9 10 7 5 3 3 4 5 5 7 9 10 11 12 13 14 14 15 14
11 13 14 14 15 16 19 22 24 26 26 27 29 30 31 32 32 30 28 31 26 18 18 18 16 16 14 13 14 16 17 18 19 19 20 20 20 19 19 19 19 18 18 18 18 18 18 18 18 17 15 15 19 21 22 24 24 20 20 19 19 17 13 12 12 10 10 11 8 6 3 2 4 5 5 7 8 10 11 12 13 13 14 14 13
7 8 11 11 10 10 12 15 18 21 24 27 29 30 32 32 31 31 31 33 30 24 23 22 19 17 15 15 15 15 16 18 20 21 21 21 20 20 20 20 19 19 18 18 18 18 18 18 18 19 18 17 17 18 19 21 23 21 21 22 21 18 15 14 13 11 11 12 9 7 5 2 3 4 5 7 8 9 10 12 12 13 13 13 12
5 6 6 7 8 8 9 9 10 13 17 22 27 29 30 31 32 31 31 31 30 27 26 24 22 20 17 17 16 15 17 19 21 23 22 22 22 21 21 20 19 19 18 18 18 18 18 18 18 19 19 19 18 16 15 15 18 19 21 24 23 20 17 16 15 13 12 13 11 8 6 2 1 3 5 7 8 9 10 11 12 12 13 12 12
6 6 6 7 9 9 8 9 9 9 12 15 20 25 26 28 30 31 33 33 31 30 28 26 25 23 20 18 16 15 16 16 18 20 20 22 23 22 22 21 19 19 19 18 18 18 19 19 19 19 20 21 21 20 16 14 17 19 21 25 24 21 20 18 17 15 13 14 12 10 7 4 1 3 5 7 8 9 11 11 12 12 12 12 12
6 5 6 7 9 10 9 10 10 9 10 12 14 17 21 25 27 29 32 32 31 35 34 29 26 26 27 24 20 19 16 14 13 15 17 20 21 21 23 22 21 20 19 19 18 18 18 19 20 21 22 22 23 23 21 20 20 20 21 26 25 22 22 20 19 16 15 15 14 11 9 5 2 2 4 6 8 9 10 11 12 13 13 13 12
5 5 6 7 7 8 9 9 10 10 11 12 12 13 15 19 23 26 30 29 31 36 36 31 29 31 33 30 27 26 19 15 15 15 14 17 19 20 22 23 23 21 20 20 19 18 19 20 21 21 22 23 24 25 24 24 24 22 21 25 25 23 23 22 20 18 16 16 15 12 10 7 3 2 4 6 7 9 10 11 13 14 14 14 13
5 5 5 6 6 7 8 9 9 10 12 13 14 13 13 15 19 22 26 29 32 36 35 32 32 33 34 34 32 30 24 18 17 18 17 15 16 19 21 22 23 22 21 21 20 19 20 22 21 21 22 23 23 24 23 24 26 25 22 23 25 24 24 24 20 18 18 17 16 14 11 8 4 2 3 5 7 8 10 11 12 13 13 14 14
5 5 6 6 6 7 8 9 10 10 12 14 14 15 16 17 18 19 23 28 33 36 34 33 33 33 35 37 35 33 30 24 20 19 19 19 17 17 19 21 23 23 23 23 22 20 21 23 21 19 21 23 23 24 23 23 24 26 25 25 26 26 26 25 21 19 19 18 17 15 13 10 6 3 3 5 6 7 9 10 10 11 12 12 12
9 8 8 7 7 9 9 9 10 11 12 14 16 17 20 22 21 20 22 27 31 33 33 33 34 36 38 37 36 36 34 29 26 23 20 20 22 20 17 17 20 21 22 24 24 22 22 23 22 20 19 21 21 22 23 22 23 25 26 27 28 28 27 25 22 20 21 20 18 16 14 12 8 5 4 4 6 7 8 8 9 9 10 11 11
13 13 12 12 12 11 11 10 10 11 11 13 15 17 19 21 22 23 24 26 29 32 33 34 36 37 39 40 39 38 37 35 33 29 24 22 22 24 23 18 18 19 19 22 23 23 23 23 23 21 19 19 20 20 21 21 22 24 26 28 29 28 26 25 23 21 22 21 19 17 15 13 10 6 4 4 5 6 7 7 8 9 10 11 11
13 13 13 15 16 16 15 13 11 11 12 13 14 15 16 18 20 23 24 26 28 30 32 33 35 35 38 41 41 39 38 36 34 33 31 29 25 25 25 22 20 19 19 21 22 21 23 24 23 22 20 19 19 19 19 21 23 24 25 26 28 27 25 24 23 22 23 23 21 18 16 14 11 8 5 4 5 5 6 7 8 9 9 10 10
12 13 15 17 19 19 18 17 15 14 14 16 17 17 17 17 19 22 24 26 27 28 30 31 32 32 34 39 42 43 42 40 38 37 36 35 32 28 27 25 24 22 19 21 21 19 21 24 23 22 21 20 21 20 19 22 26 27 26 25 25 26 25 24 25 24 25 24 22 18 17 15 12 8 5 5 6 6 6 7 8 8 9 9 9
15 17 19 20 21 22 22 21 20 19 18 18 19 21 20 19 19 21 23 25 27 28 30 32 33 32 32 34 37 41 44 43 42 41 38 38 37 32 28 27 26 25 21 19 21 19 19 23 24 23 21 21 22 21 20 24 28 28 27 26 24 24 24 26 27 25 24 24 21 18 17 16 12 8 6 6 7 6 7 8 8 9 9 9 9
19 20 22 23 25 26 27 27 25 23 21 20 20 22 24 23 21 21 22 24 27 29 30 32 34 35 34 35 35 37 41 43 44 44 42 41 42 38 33 29 26 25 23 20 21 20 18 20 22 23 21 20 22 21 22 26 28 27 27 26 24 24 25 27 28 25 25 24 21 19 18 16 12 8 7 7 8 8 8 9 9 10 10 9 9
20 22 24 26 28 29 30 31 29 26 24 22 22 22 24 26 24 22 22 23 26 29 31 32 33 34 35 37 38 37 38 40 42 45 44 41 42 42 38 34 28 25 25 22 21 20 19 20 20 21 20 21 25 25 25 28 27 25 27 27 25 26 27 28 28 27 27 24 21 20 19 16 12 9 8 8 9 10 9 10 11 11 10 10 9
21 23 25 26 28 28 29 31 29 25 22 21 22 23 23 25 26 24 22 21 22 26 30 32 33 34 33 34 37 37 36 38 41 43 44 43 43 44 43 40 35 30 29 25 22 21 20 22 23 23 23 24 25 24 23 28 28 24 27 28 27 27 28 28 28 28 28 24 21 21 20 16 13 10 9 9 10 11 11 11 12 12 11 10 10
23 23 23 25 26 24 25 26 23 19 18 18 20 22 22 23 27 28 25 22 22 24 26 29 33 35 33 33 35 36 36 37 39 41 43 45 44 44 45 44 40 38 35 29 25 23 22 24 27 30 30 28 27 25 23 25 28 27 28 29 28 28 27 28 29 28 27 24 22 22 20 17 14 12 10 10 12 12 13 13 13 13 12 11 11
23 19 16 20 23 20 20 20 17 15 16 17 19 20 21 23 25 28 28 25 23 24 24 25 29 33 35 35 34 35 36 37 38 40 42 45 46 46 47 46 43 41 39 33 28 25 24 24 28 31 31 29 28 28 28 27 27 28 30 29 28 27 28 29 29 27 25 24 24 23 21 18 16 14 12 12 13 14 15 15 15 14 13 11 12
20 17 16 19 20 19 18 18 17 17 16 17 18 20 21 22 23 26 28 27 25 25 25 25 26 30 33 36 36 36 36 36 37 38 39 42 46 49 50 49 46 42 41 39 34 29 25 23 26 29 27 28 27 23 26 30 28 29 32 30 28 27 29 30 30 29 27 26 26 24 22 19 18 16 14 14 15 15 16 16 15 15 13 12 12
17 17 19 19 18 19 19 19 18 18 17 18 18 18 21 23 23 24 26 27 27 26 26 25 26 28 30 33 36 36 34 33 35 37 38 41 44 48 51 51 49 46 45 45 40 35 30 24 23 26 26 29 29 21 21 27 29 33 34 30 28 29 30 31 31 30 29 28 27 26 23 21 20 18 15 15 16 17 17 17 16 15 14 13 13
17 17 18 19 19 19 19 19 18 18 18 19 18 19 21 23 24 25 25 26 28 28 27 26 26 28 29 31 33 34 34 33 35 37 38 38 41 46 49 51 53 51 48 46 42 38 34 25 21 26 29 31 31 24 21 24 29 36 35 30 31 32 32 32 32 31 30 29 29 27 25 23 21 19 17 17 17 18 19 18 16 15 14 14 14
18 19 19 20 20 20 20 19 18 18 18 18 18 20 22 22 23 25 26 27 29 31 31 29 28 28 30 32 32 32 34 35 37 37 37 37 40 44 47 50 53 54 51 49 45 42 37 27 22 27 33 34 32 27 25 25 28 33 31 29 33 34 34 33 32 31 30 30 30 28 27 25 23 21 19 18 19 20 20 18 16 15 14 14 14
19 20 20 20 21 21 20 20 19 19 19 19 19 21 22 21 21 24 27 29 31 34 35 35 33 30 29 31 33 32 33 35 37 37 38 40 41 42 45 46 47 50 51 51 50 46 39 31 24 26 32 34 31 30 31 29 30 32 30 30 33 34 34 34 32 31 31 30 30 29 28 26 25 23 20 19 20 22 21 18 16 16 15 15 15
20 21 20 20 20 20 20 20 20 20 20 20 21 21 21 21 22 24 27 29 31 34 36 39 39 37 33 31 32 33 33 35 36 38 40 41 42 42 44 45 44 45 47 49 51 48 42 35 28 26 29 29 29 32 34 33 33 34 33 32 34 35 35 35 34 33 32 32 32 30 29 28 27 25 22 21 21 23 21 19 17 16 16 15 15
20 21 21 21 22 23 22 21 21 22 21 21 21 22 22 22 23 26 26 28 31 33 35 38 40 42 41 38 34 32 35 37 36 37 39 40 41 42 43 47 47 45 42 43 47 48 44 38 31 28 29 26 29 33 35 34 35 38 38 36 35 35 36 35 34 35 35 35 33 32 31 30 28 26 23 22 22 23 22 19 18 17 16 16 16
20 21 22 22 22 23 22 22 23 23 22 22 22 22 22 22 23 25 26 27 30 33 35 37 39 41 44 45 41 37 38 40 37 36 37 38 41 43 44 45 44 42 40 40 43 47 47 41 34 32 31 29 31 35 35 34 36 39 41 41 38 37 36 35 34 35 37 37 34 33 32 30 28 26 24 23 24 24 22 20 19 18 17 16 16
20 21 21 21 21 21 21 22 22 22 21 22 22 22 22 22 22 24 25 26 30 34 36 37 38 40 42 46 48 45 42 40 38 37 37 38 40 41 42 43 44 43 43 43 43 46 49 47 40 36 36 34 33 35 35 36 37 39 41 42 41 40 38 36 34 35 36 37 35 34 33 31 30 28 26 26 25 24 23 21 21 19 17 16 16
20 20 21 21 21 22 22 23 22 21 22 22 22 23 24 23 22 22 23 24 28 32 35 36 37 39 41 43 48 50 48 45 42 40 39 39 39 39 40 43 47 47 45 44 43 45 48 48 42 38 39 38 36 37 38 39 39 39 41 41 41 40 39 37 36 36 36 36 35 35 34 33 32 30 28 27 26 25 23 23 23 20 16 15 16
20 21 21 22 22 23 24 25 24 22 22 23 25 29 30 29 27 25 23 24 26 29 32 35 36 38 40 42 44 47 48 48 46 45 44 43 42 41 40 41 44 46 47 46 45 46 48 47 41 39 41 40 40 41 41 39 38 39 41 41 40 39 38 38 37 37 37 36 35 35 35 34 32 31 29 28 27 25 24 25 24 18 14 15 15
21 22 22 22 23 23 23 24 24 23 23 25 28 33 35 35 34 32 29 29 30 31 32 34 35 37 39 41 42 43 45 46 47 47 47 47 46 45 43 42 43 45 46 46 47 48 48 46 41 39 41 42 42 42 41 38 38 39 39 40 41 40 40 40 39 38 38 37 36 36 35 35 33 31 29 28 28 27 25 27 24 15 13 14 15
21 22 23 23 24 24 23 25 25 25 25 27 30 34 36 37 37 36 34 32 32 34 34 34 35 36 37 39 40 41 42 43 43 43 45 46 48 49 47 46 46 46 44 44 47 50 49 45 41 40 42 43 45 45 43 39 37 38 38 40 41 40 40 41 40 39 38 37 37 37 36 36 34 32 30 27 28 28 26 27 23 16 13 15 15
21 22 22 23 23 23 24 26 26 27 27 28 30 34 36 37 37 38 38 35 33 36 37 37 36 36 36 37 38 39 40 40 40 40 41 42 44 48 50 48 48 47 46 44 46 49 48 46 44 43 44 45 47 48 44 39 38 38 40 42 41 39 39 39 39 39 38 37 37 37 38 37 34 32 29 24 24 27 26 26 22 17 15 15 15
22 22 23 23 23 23 23 25 25 27 28 28 29 32 35 37 38 39 41 40 37 37 39 40 39 38 37 37 37 38 38 37 37 38 39 39 39 42 47 50 50 49 48 46 46 46 47 48 48 46 44 44 45 44 39 37 38 38 38 39 38 38 39 38 37 39 38 36 36 37 37 36 32 28 26 22 21 25 28 26 21 16 16 16 15
22 23 23 23 23 22 23 24 25 27 28 28 30 32 34 36 37 38 41 43 40 38 39 41 41 40 39 38 38 38 37 35 36 37 37 37 38 39 42 47 51 52 50 50 48 47 47 47 48 45 43 44 44 37 32 34 37 36 35 35 35 36 37 37 37 38 38 37 37 35 33 31 28 26 23 20 20 25 29 26 19 15 15 15 14
22 23 23 23 23 23 23 25 27 28 29 29 31 33 34 35 36 37 40 42 41 40 40 41 41 42 41 40 40 40 39 38 37 37 36 37 38 39 40 43 47 50 51 51 49 47 46 46 47 46 44 45 44 36 32 35 36 35 35 36 35 35 37 38 38 37 36 36 35 32 28 27 27 23 19 17 21 25 29 24 17 14 14 14 13
23 24 23 23 23 24 25 25 27 29 29 29 31 34 35 35 37 39 40 40 40 41 41 41 41 42 43 42 42 40 41 42 41 37 36 37 38 40 41 39 41 43 46 50 50 47 44 44 47 50 49 49 47 40 36 35 32 31 34 38 37 36 37 38 38 37 36 34 32 30 27 26 26 20 15 17 23 24 25 24 18 13 13 13 13
24 23 23 23 24 25 25 25 27 29 31 30 31 35 37 37 38 41 42 42 42 41 41 41 41 42 43 44 44 42 42 44 44 40 36 36 38 41 40 37 39 40 42 46 48 46 44 42 42 44 47 49 48 42 37 33 28 26 31 35 35 35 38 39 38 36 36 34 33 31 27 25 25 18 17 20 22 19 19 22 20 13 11 12 12
23 22 22 24 25 25 26 27 28 30 32 32 32 35 37 37 37 39 41 42 43 43 41 40 40 41 42 43 45 46 45 45 44 42 39 36 38 41 40 38 39 42 43 44 44 44 45 44 42 40 42 44 42 38 33 29 26 27 31 33 33 33 36 38 37 36 35 34 33 32 28 25 24 20 20 21 18 15 15 19 20 15 11 11 10
Wind_Direction
206 210 225 219 209 200 193 189 187 190 197 191 193 197 186 189 187 182 187 193 204 203 204 209 213 212 205 212 213 208 218 214 215 231 211 239 276 272 252 247 243 239 228 217 213 213 216 223 228 228 231 233 231 227 220 219 218 217 204 190 205 61 62 63 58 48 60 69 74 77 76 74 67 56 44 37 31 26 23 22 21 19 16 13 12
215 221 222 208 208 199 192 196 195 191 196 197 198 201 193 194 192 186 190 199 208 211 211 211 215 219 213 214 216 211 217 218 213 226 221 218 259 270 263 256 249 244 238 227 218 215 214 219 229 229 231 235 233 228 222 225 222 220 221 216 264 352 43 45 47 46 67 77 78 79 78 72 61 49 38 32 27 23 21 21 19 16 14 13 11
226 225 225 219 215 207 200 201 199 194 199 201 199 201 200 200 195 190 198 205 211 216 219 217 217 220 217 215 216 214 214 217 213 218 224 214 237 267 272 261 251 246 241 234 225 220 215 215 227 231 230 233 234 230 222 227 228 221 223 226 248 283 34 31 9 43 79 82 86 87 78 68 53 41 32 27 24 21 21 19 17 14 12 13 12
227 229 230 234 229 219 209 201 201 203 207 208 204 203 205 202 198 199 205 205 209 218 225 226 224 222 220 217 216 216 213 214 213 215 219 218 226 255 273 273 260 246 242 241 234 225 218 214 223 229 229 231 232 229 224 224 225 222 220 226 233 246 326 244 279 23 88 92 96 95 77 62 45 33 27 24 21 19 20 18 15 12 12 14 14
224 231 231 232 229 225 218 206 202 207 214 215 208 206 208 204 201 202 202 204 211 217 226 233 231 226 222 219 218 218 215 212 213 216 216 217 220 229 259 282 275 255 245 242 241 235 224 216 220 226 226 230 231 229 225 219 220 222 220 224 226 225 256 241 249 44 103 108 108 98 74 55 37 27 22 20 19 18 20 17 13 12 14 16 16
227 232 233 231 226 223 223 215 207 212 214 214 213 215 215 210 208 206 198 200 213 219 225 231 233 231 227 219 219 223 220 213 211 217 218 216 219 220 231 256 273 273 261 246 244 242 234 224 221 227 228 229 231 230 226 218 216 221 221 221 221 223 238 242 237 179 133 129 128 106 71 44 27 21 17 16 18 19 18 15 13 14 17 18 18
232 233 234 234 229 228 229 222 220 222 216 208 208 220 225 219 216 214 205 202 214 224 229 231 231 231 230 223 218 222 223 217 211 217 221 219 219 220 223 223 237 264 267 260 260 251 243 235 228 227 229 229 232 234 229 220 216 219 222 217 216 225 230 231 224 178 156 154 153 123 71 32 19 15 11 13 17 18 16 13 14 17 19 20 20
238 235 234 232 229 234 238 233 231 231 226 217 213 218 226 230 227 219 212 212 215 223 228 231 232 231 230 226 219 218 223 222 215 217 223 226 224 222 225 225 223 232 239 253 270 266 250 242 237 232 230 229 232 235 232 224 218 218 219 215 215 220 222 225 210 177 172 172 172 148 73 18 13 11 9 12 15 16 14 13 17 20 21 21 21
245 240 234 232 230 233 239 238 235 230 227 224 222 222 221 228 234 227 221 221 221 225 228 230 232 235 232 226 221 216 218 223 220 218 220 225 228 225 227 231 228 229 229 228 247 266 260 246 242 241 237 234 232 232 233 228 220 216 214 211 212 215 217 221 205 183 187 187 186 181 103 359 6 9 9 12 14 14 12 14 20 22 22 21 21
253 251 242 239 238 236 236 237 233 227 226 226 224 224 222 225 235 236 231 228 232 231 226 230 234 236 237 228 223 218 215 218 221 220 222 224 227 227 227 233 234 232 234 228 220 242 260 252 244 244 243 240 237 234 233 231 225 216 210 207 207 211 214 214 204 196 199 198 195 197 236 341 1 9 11 14 13 11 12 18 23 24 23 22 22
253 254 246 242 242 239 237 237 235 229 229 229 227 228 228 230 235 239 237 232 235 235 226 227 234 235 239 233 223 221 217 214 216 219 224 224 224 228 228 230 234 233 234 235 222 222 246 253 247 244 241 238 238 239 238 236 231 218 208 206 209 210 207 205 207 205 203 203 201 203 251 329 356 7 14 15 12 11 14 21 25 25 24 23 23
257 254 248 243 242 242 242 242 239 235 233 234 236 237 234 236 239 240 244 243 235 235 232 224 232 240 242 239 228 223 221 215 214 217 222 224 224 228 230 229 231 232 231 233 230 222 225 243 248 243 241 241 240 242 245 244 238 225 214 211 211 212 206 203 211 213 205 201 203 208 254 322 354 6 17 18 11 13 17 23 25 25 26 25 26
260 256 253 249 247 246 248 249 246 243 240 239 240 241 238 239 242 239 240 247 242 238 238 227 229 241 240 240 236 230 227 221 219 218 220 223 224 226 228 230 231 232 231 230 231 227 218 225 234 231 236 246 246 243 245 247 242 231 223 217 211 211 207 203 211 216 207 200 202 212 249 312 352 8 19 19 14 16 19 23 26 25 26 27 28
259 256 255 254 256 253 253 253 251 248 245 243 242 241 241 241 243 240 233 240 243 239 238 231 228 236 235 238 239 234 232 229 226 223 221 221 221 222 225 229 230 229 232 231 229 230 224 220 224 225 222 233 247 245 241 245 242 233 226 219 212 212 208 204 211 216 209 201 201 216 239 296 354 13 22 21 17 19 21 24 26 25 27 29 31
257 268 268 263 265 260 255 254 254 252 246 245 244 242 242 241 242 242 235 236 241 241 240 238 234 233 233 236 237 234 234 231 228 226 224 222 222 222 223 225 227 227 227 229 228 228 229 224 221 224 220 219 234 245 246 248 244 233 224 220 215 213 208 204 209 213 212 203 200 217 232 269 355 18 24 24 22 21 23 24 25 26 27 29 34
263 274 279 278 275 270 264 254 253 258 252 247 246 244 244 243 241 240 238 238 238 239 238 234 229 228 229 235 235 234 238 234 228 229 229 224 223 224 224 223 224 226 224 226 229 230 229 228 224 223 223 218 217 229 244 252 247 233 221 220 217 212 209 208 209 209 209 206 204 215 224 237 343 23 27 26 26 24 25 24 24 25 27 30 35
274 269 269 266 256 256 267 261 246 249 259 257 250 247 244 244 242 239 239 239 235 234 233 228 227 226 224 230 234 235 246 244 227 226 229 225 225 224 223 224 221 222 225 226 228 231 232 230 228 225 223 222 215 217 221 226 241 238 217 215 217 212 210 212 212 207 205 207 207 215 222 226 289 17 28 28 28 27 25 23 22 22 24 29 35
279 271 273 262 245 239 243 252 251 243 248 257 259 255 247 244 243 239 237 236 235 236 237 236 237 234 225 221 225 231 251 271 251 233 224 219 224 225 223 224 222 222 224 227 227 229 232 231 231 230 226 224 219 217 215 211 229 238 219 212 215 213 212 215 214 205 201 207 209 216 222 226 258 2 21 25 28 28 24 21 19 17 17 21 29
288 278 276 271 262 256 246 245 255 253 243 244 253 259 256 252 248 242 239 237 238 239 239 239 242 242 232 222 222 226 242 276 277 262 240 217 215 220 223 222 222 224 224 224 227 228 230 230 231 233 230 227 222 219 219 216 223 232 223 214 214 214 214 218 217 207 200 205 211 217 224 231 251 333 11 20 25 25 23 20 17 14 12 12 15
287 285 280 277 275 272 265 257 256 259 255 251 252 254 258 259 254 246 241 239 240 241 241 241 242 242 235 226 223 222 229 249 263 268 264 246 224 216 221 224 222 225 227 226 227 228 230 231 231 233 230 228 224 221 219 218 224 232 230 220 214 213 216 220 220 209 202 205 211 218 224 232 248 298 351 11 20 20 20 19 15 11 8 6 6
308 287 281 278 272 266 264 265 264 261 262 262 259 254 249 248 249 247 243 240 240 241 241 239 239 239 234 228 224 220 221 232 245 257 263 263 252 227 215 217 220 224 227 228 230 228 229 232 232 230 229 228 224 221 219 218 224 231 233 225 215 212 216 221 220 211 205 207 211 217 224 233 247 277 328 0 9 13 17 15 11 8 4 3 3
344 329 317 307 290 274 262 263 267 262 260 260 258 253 244 237 238 241 241 242 242 241 240 238 239 239 234 230 227 225 224 224 230 241 252 260 263 254 236 225 223 223 223 225 227 227 228 231 233 228 226 226 222 220 220 217 216 221 227 224 216 215 216 218 220 213 207 208 211 217 224 231 243 270 309 345 355 3 11 9 5 3 360 359 357
345 344 340 333 324 307 285 269 263 260 261 262 260 260 253 243 241 239 238 241 244 244 242 241 241 238 234 231 232 232 230 226 226 232 241 251 259 262 260 251 235 222 222 226 226 227 227 228 229 228 224 222 219 217 215 211 208 214 223 223 216 217 218 217 219 215 208 210 213 217 225 231 239 261 292 324 338 351 1 0 357 356 355 353 350
336 336 333 330 329 326 314 294 274 261 259 258 255 258 261 258 254 247 240 238 242 246 245 243 242 239 236 234 233 233 231 232 235 238 243 248 251 259 263 258 243 229 227 228 223 223 227 227 227 227 224 219 216 214 207 205 207 212 221 222 217 218 218 217 219 215 210 212 215 217 225 232 239 256 280 306 319 336 353 353 350 349 348 346 342
320 319 317 318 321 322 319 309 294 277 265 257 249 243 246 253 258 255 248 240 239 243 246 245 244 243 241 238 235 234 233 235 239 242 246 248 247 253 261 262 255 246 236 223 212 212 222 225 225 226 224 218 215 211 202 204 211 212 216 218 217 217 218 217 219 215 210 212 216 217 225 233 238 252 272 294 307 325 343 345 343 339 339 339 334
308 308 309 311 312 311 310 306 300 290 278 269 259 249 245 248 251 253 253 248 241 240 244 246 245 243 242 241 238 237 237 239 239 240 243 244 243 246 254 262 264 259 248 223 203 205 218 223 224 223 221 216 211 206 201 208 215 214 215 218 217 216 217 217 217 215 212 213 216 219 225 234 238 243 265 291 298 312 331 335 336 333 331 333 328
305 306 306 306 306 306 304 302 299 291 281 274 269 262 257 254 249 245 246 249 245 241 242 246 246 243 241 241 241 241 240 240 241 241 241 240 242 244 246 253 263 267 259 229 203 207 215 217 220 219 216 211 206 202 201 212 219 217 216 217 216 216 216 215 214 213 213 215 219 222 226 232 234 238 260 285 290 298 317 326 328 326 325 328 324
300 302 303 305 305 304 303 300 297 289 278 271 268 266 263 260 255 248 244 246 249 245 242 245 248 248 245 243 243 243 242 240 241 241 239 237 241 246 244 244 251 265 266 241 219 219 213 208 213 213 210 205 202 203 206 214 219 217 216 217 216 217 215 212 210 210 213 217 221 223 227 230 230 240 261 277 284 291 303 315 319 318 320 324 320
297 298 299 302 302 299 298 295 290 283 274 268 264 262 261 258 257 254 247 245 250 251 248 246 247 249 249 246 244 243 241 241 240 239 237 236 240 245 244 242 242 250 260 253 238 231 216 205 203 201 204 206 206 208 212 219 220 216 217 217 216 217 212 207 207 209 212 219 222 224 228 229 229 242 262 271 278 287 294 304 311 312 314 320 318
293 293 294 298 297 293 292 290 284 275 270 268 263 260 258 256 255 254 251 247 244 246 249 250 248 247 247 248 246 243 242 242 241 237 234 234 238 241 241 242 240 240 248 254 251 241 225 210 199 197 205 213 218 217 217 224 223 217 218 216 212 214 209 204 207 208 210 217 223 226 228 230 233 245 261 268 275 284 290 297 305 307 310 317 317
290 287 287 292 291 285 283 284 278 271 269 268 266 264 261 258 256 254 252 250 246 243 243 246 249 248 246 246 246 246 246 244 242 239 236 236 238 239 241 242 240 238 240 247 256 252 236 219 204 203 211 214 217 219 219 225 226 221 218 212 207 208 205 204 208 210 213 220 225 227 229 233 237 245 257 265 273 282 288 292 298 301 307 315 314
289 284 280 283 283 278 276 276 274 273 271 268 268 269 265 261 258 255 252 249 249 250 246 244 247 249 248 246 244 247 247 243 239 238 238 238 238 238 240 242 241 239 236 239 251 252 244 233 216 209 207 202 201 206 213 219 221 219 216 210 206 205 203 205 210 213 218 222 225 227 229 233 237 242 251 261 269 279 284 286 291 299 307 312 311
281 280 279 278 276 275 274 273 272 271 269 268 268 268 267 265 259 255 253 249 248 250 250 247 245 244 247 247 245 245 245 241 238 239 240 241 241 238 239 240 239 238 236 238 244 245 244 247 231 212 200 197 198 192 199 211 212 212 213 207 205 207 207 209 212 216 220 221 224 227 228 231 234 237 246 257 265 274 279 281 288 298 305 309 307
277 278 279 278 276 275 274 273 271 269 268 267 267 264 264 266 263 258 253 250 248 247 247 249 248 243 243 246 246 244 244 243 242 242 240 240 242 240 237 238 237 237 237 236 237 238 239 246 234 210 199 201 204 193 193 207 207 207 211 206 205 209 211 214 217 219 221 221 222 225 227 230 232 235 243 254 262 270 275 278 286 295 301 305 304
279 277 277 276 275 274 273 272 271 270 269 267 265 263 262 261 262 261 257 252 248 245 242 244 247 246 245 245 246 244 244 244 244 244 242 239 239 239 237 238 237 237 238 237 236 235 236 240 231 209 202 206 209 205 207 214 211 210 213 209 209 212 213 216 221 222 223 223 223 225 227 228 231 234 241 250 259 267 271 275 284 293 298 300 300
276 276 274 272 272 271 271 272 271 270 269 267 266 264 262 261 260 260 259 256 252 247 244 241 240 241 244 246 246 245 243 244 244 244 243 240 238 236 235 237 237 237 238 237 237 235 231 233 229 212 208 209 209 211 215 216 215 218 220 215 214 216 216 218 221 222 223 224 225 227 229 230 233 236 240 249 258 264 268 274 283 290 295 296 296
276 274 272 270 270 271 270 271 271 270 269 267 266 264 261 261 259 259 260 258 255 251 248 246 242 239 240 243 244 245 244 244 244 244 243 241 240 237 236 238 239 238 235 233 235 234 227 228 226 209 206 203 197 205 215 216 214 213 215 217 217 217 217 218 222 223 223 223 224 227 229 231 234 236 241 248 256 262 268 274 282 287 291 293 292
276 274 272 271 270 271 270 270 270 270 269 266 265 264 262 260 258 258 258 257 256 253 250 249 247 244 243 242 242 244 245 243 243 243 243 242 242 241 241 241 238 235 231 229 232 230 224 227 224 202 195 192 190 201 213 218 217 212 210 211 213 216 219 221 223 223 221 222 223 227 229 231 234 237 242 248 254 261 267 273 280 284 287 290 291
276 275 274 271 269 269 269 269 268 268 268 267 265 264 261 260 258 257 255 255 255 254 252 251 249 247 247 245 242 242 242 242 242 243 243 242 243 242 242 240 234 230 229 230 232 227 222 226 224 205 194 192 196 207 214 216 216 215 214 212 210 215 221 225 227 225 223 222 222 226 229 232 236 238 242 249 254 259 265 272 279 282 285 288 289
277 275 275 272 270 269 268 268 268 268 267 266 264 264 262 260 259 257 256 255 254 254 254 252 249 247 246 246 245 243 240 240 243 245 243 242 243 243 241 238 237 236 235 233 233 229 224 226 226 212 198 192 199 209 210 206 205 208 215 219 219 221 224 225 227 227 227 226 224 226 230 232 235 238 242 248 253 258 264 271 277 281 284 286 285
278 277 275 274 271 270 270 269 268 267 267 265 264 264 264 261 259 258 257 256 256 256 255 254 251 248 245 244 245 244 242 240 239 240 241 241 242 241 240 241 243 241 235 231 233 233 226 224 222 209 196 195 200 204 205 205 209 211 215 219 221 224 226 226 225 226 227 228 228 230 234 236 238 240 243 248 253 257 264 271 277 280 282 282 282
281 279 276 273 271 269 270 270 269 267 265 265 267 268 267 263 259 257 257 256 256 256 255 254 253 250 247 244 244 245 244 242 238 236 236 237 238 239 240 243 244 241 235 230 232 234 228 222 216 202 194 197 203 207 211 215 217 216 215 216 217 219 222 222 222 224 226 228 230 233 237 238 239 240 243 248 253 258 264 271 275 277 279 279 279
283 282 278 275 272 271 270 269 268 267 265 264 268 270 270 268 263 259 256 255 254 254 254 254 254 253 250 246 244 244 245 244 241 238 236 234 234 235 238 241 242 242 239 232 230 232 226 218 211 201 196 199 204 211 217 218 216 216 216 217 217 217 220 222 222 225 228 230 231 234 237 238 239 241 244 249 255 258 262 268 271 273 276 277 278
285 284 282 279 276 274 272 271 269 267 266 265 265 268 269 269 267 264 260 257 255 254 252 252 252 253 252 250 246 243 243 244 244 243 242 239 235 233 235 239 242 243 241 232 229 230 224 215 210 203 202 206 208 212 218 217 215 215 214 215 218 220 225 227 227 230 233 232 229 230 234 238 238 239 242 248 256 260 262 267 273 282 283 279 277
288 287 284 282 280 277 275 274 271 268 267 266 264 265 266 265 265 264 262 259 256 255 253 251 250 249 249 250 249 244 241 242 242 242 244 244 241 237 235 236 240 242 242 236 234 236 231 221 214 206 203 208 213 217 221 219 216 215 211 212 218 223 227 228 229 234 236 232 227 226 230 235 236 236 240 245 253 261 265 268 276 286 284 279 278
289 288 287 284 282 280 278 276 274 271 269 267 262 260 261 261 262 262 262 260 257 255 254 252 250 248 246 245 247 245 241 240 240 240 241 243 244 243 241 238 237 238 240 238 238 242 235 223 216 209 204 210 219 224 224 219 218 219 218 218 221 224 226 226 227 233 235 232 228 224 226 234 235 234 238 238 239 252 261 265 272 281 279 276 278
289 289 288 287 284 282 281 280 278 274 272 270 265 261 260 261 261 261 261 260 257 255 254 253 250 248 245 243 242 242 240 239 238 238 239 239 240 242 245 243 238 236 237 238 238 241 239 228 221 215 209 214 223 227 223 221 222 224 225 226 225 225 225 222 221 227 230 228 227 224 225 234 236 230 232 232 230 243 255 261 269 275 272 273 276
290 290 289 288 287 285 283 281 279 277 276 273 270 267 265 264 263 262 261 259 257 255 254 253 251 248 246 243 240 239 238 235 233 234 237 238 238 239 242 245 243 238 237 238 239 239 241 240 234 226 216 216 223 226 222 219 221 222 223 222 221 223 223 219 217 223 227 226 227 224 222 230 233 227 224 222 221 236 252 261 267 269 267 269 271
293 293 291 291 290 288 286 284 281 279 278 276 273 271 268 265 261 260 260 259 257 255 254 252 251 249 246 243 240 239 238 233 227 225 231 237 239 239 239 241 244 240 235 237 239 238 239 242 238 231 223 220 223 224 222 220 221 225 224 220 221 225 225 220 218 222 226 227 225 218 211 221 232 223 203 207 218 234 254 264 265 262 264 268 270
295 295 294 294 293 291 289 287 285 283 281 279 275 272 270 267 262 258 258 259 257 256 254 252 250 248 246 245 242 238 236 233 227 222 224 232 238 239 237 237 238 236 232 233 235 234 234 232 227 222 218 218 220 219 219 223 228 234 233 230 230 230 227 224 221 221 223 224 225 217 203 211 227 214 185 200 219 231 250 264 268 265 263 268 271
297 297 297 297 296 294 292 291 290 287 285 282 278 276 275 272 267 262 259 259 257 256 255 252 250 248 246 246 246 241 234 229 226 221 219 227 236 238 236 235 235 233 231 231 232 231 229 227 223 217 212 212 215 214 215 221 228 234 236 236 235 233 230 227 224 221 220 221 222 216 201 205 221 207 186 200 217 220 230 250 266 272 269 267 272